Location: Anciles
(42.5833°N, 0.5167°E)
Time: 15:17:47
(UTC+00:00)

SMAP - Pass Details

Date: 10 December 2019
Orbit: 681 x 684 km, 98.1° (Epoch: 23 January)

Event Time Altitude Azimuth Distance (km) Brightness Sun altitude
Rises 17:10:53 0° 160° (SSE) 3,033 6.4 -8.4°
Reaches altitude 10° 17:13:07 10° 158° (SSE) 2,122 5.6 -8.8°
Maximum altitude 17:17:44 72° 75° (ENE) 721 3.0 -9.6°
Drops below altitude 10° 17:22:24 10° 351° (N) 2,138 5.5 -10.4°
Sets 17:24:39 0° 350° (N) 3,057 6.3 -10.8°
